owner,sensor,date,latitude,longitude,vertical_datum,wind_speed,wind_to_direction,wind_speed_of_gust,qcFlag 
COMPS,ioos:station:USF.COMPS:ARP:1,2014-05-28T15:00:00Z,28.4330,-82.6670,10.0,2.38,161.94,4.01,'1111122,1111122,1111122' 
COMPS,ioos:station:USF.COMPS:ARP:1,2014-05-28T15:06:00Z,28.4330,-82.6670,10.0,1.75,151.43,3.91,'1111122,1111122,1111122' 
COMPS,ioos:station:USF.COMPS:ARP:1,2014-05-28T15:12:00Z,28.4330,-82.6670,10.0,2.0,143.89,3.62,'1111122,1111122,1111122' 
COMPS,ioos:station:USF.COMPS:ARP:1,2014-05-28T15:18:00Z,28.4330,-82.6670,10.0,1.56,152.78,3.33,'1111122,1111122,1111122' 
COMPS,ioos:station:USF.COMPS:ARP:1,2014-05-28T15:24:00Z,28.4330,-82.6670,10.0,1.94,140.93,3.62,'1111122,1111122,1111122' 
COMPS,ioos:station:USF.COMPS:ARP:1,2014-05-28T15:30:00Z,28.4330,-82.6670,10.0,1.99,164.19,3.72,'1111122,1111122,1111122' 
COMPS,ioos:station:USF.COMPS:ARP:1,2014-05-28T15:36:00Z,28.4330,-82.6670,10.0,1.74,148.75,3.23,'1111122,1111122,1111122' 
COMPS,ioos:station:USF.COMPS:ARP:1,2014-05-28T15:42:00Z,28.4330,-82.6670,10.0,2.17,165.8,3.91,'1111122,1111122,1111122' 
COMPS,ioos:station:USF.COMPS:ARP:1,2014-05-28T15:48:00Z,28.4330,-82.6670,10.0,1.77,139.47,3.13,'1111122,1111122,1111122' 
COMPS,ioos:station:USF.COMPS:ARP:1,2014-05-28T15:54:00Z,28.4330,-82.6670,10.0,1.35,168.66,3.03,'1111122,1111122,1111122' 
COMPS,ioos:station:USF.COMPS:ARP:1,2014-05-28T16:00:00Z,28.4330,-82.6670,10.0,1.48,141.29,2.54,'1111122,1111122,1111122' 
COMPS,ioos:station:USF.COMPS:ARP:1,2014-05-28T16:06:00Z,28.4330,-82.6670,10.0,1.63,167.98,3.03,'1111122,1111122,1111122' 
COMPS,ioos:station:USF.COMPS:ARP:1,2014-05-28T16:12:00Z,28.4330,-82.6670,10.0,1.29,160.05,2.64,'1111122,1111122,1111122' 
COMPS,ioos:station:USF.COMPS:ARP:1,2014-05-28T16:18:00Z,28.4330,-82.6670,10.0,1.27,173.36,2.54,'1111122,1111122,1111122' 
COMPS,ioos:station:USF.COMPS:ARP:1,2014-05-28T16:24:00Z,28.4330,-82.6670,10.0,1.95,111.99,3.42,'1111122,1111122,1111122' 
COMPS,ioos:station:USF.COMPS:ARP:1,2014-05-28T16:30:00Z,28.4330,-82.6670,10.0,1.96,94.95,4.01,'1111122,1111122,1111122' 
COMPS,ioos:station:USF.COMPS:ARP:1,2014-05-28T16:36:00Z,28.4330,-82.6670,10.0,1.05,142.07,2.45,'1111122,1111122,1111122' 
COMPS,ioos:station:USF.COMPS:ARP:1,2014-05-28T16:42:00Z,28.4330,-82.6670,10.0,1.92,229.7,3.82,'1111122,1111122,1111122' 
COMPS,ioos:station:USF.COMPS:ARP:1,2014-05-28T16:48:00Z,28.4330,-82.6670,10.0,1.84,199.35,3.13,'1111122,1111122,1111122' 
COMPS,ioos:station:USF.COMPS:ARP:1,2014-05-28T16:54:00Z,28.4330,-82.6670,10.0,2.19,258.68,4.11,'1111122,1111122,1111122' 
COMPS,ioos:station:USF.COMPS:ARP:1,2014-05-28T17:00:00Z,28.4330,-82.6670,10.0,5.08,284.92,6.95,'1111122,1111122,1111122' 
COMPS,ioos:station:USF.COMPS:ARP:1,2014-05-28T17:06:00Z,28.4330,-82.6670,10.0,5.29,296.22,6.37,'1111122,1111122,1111122' 
COMPS,ioos:station:USF.COMPS:ARP:1,2014-05-28T17:12:00Z,28.4330,-82.6670,10.0,5.36,301.37,6.46,'1111122,1111122,1111122' 
COMPS,ioos:station:USF.COMPS:ARP:1,2014-05-28T17:18:00Z,28.4330,-82.6670,10.0,5.44,305.99,6.17,'1111122,1111122,1111122' 
COMPS,ioos:station:USF.COMPS:ARP:1,2014-05-28T17:24:00Z,28.4330,-82.6670,10.0,5.93,309.57,7.35,'1111122,1111122,1111122' 
COMPS,ioos:station:USF.COMPS:ARP:1,2014-05-28T17:30:00Z,28.4330,-82.6670,10.0,5.17,311.36,8.62,'1111122,1111122,1111122' 
COMPS,ioos:station:USF.COMPS:ARP:1,2014-05-28T17:36:00Z,28.4330,-82.6670,10.0,3.19,317.91,6.27,'1111122,1111122,1111122' 
COMPS,ioos:station:USF.COMPS:ARP:1,2014-05-28T17:42:00Z,28.4330,-82.6670,10.0,2.13,333.59,3.62,'1111122,1111122,1111122' 
COMPS,ioos:station:USF.COMPS:ARP:1,2014-05-28T17:48:00Z,28.4330,-82.6670,10.0,1.34,343.24,2.93,'1111122,1111122,1111122' 
COMPS,ioos:station:USF.COMPS:ARP:1,2014-05-28T17:54:00Z,28.4330,-82.6670,10.0,1.28,2.1,4.99,'1111122,1111122,1111122' 
COMPS,ioos:station:USF.COMPS:ARP:1,2014-05-28T18:00:00Z,28.4330,-82.6670,10.0,1.22,5.25,2.54,'1111122,1111122,1111122' 
COMPS,ioos:station:USF.COMPS:ARP:1,2014-05-28T18:06:00Z,28.4330,-82.6670,10.0,1.84,19.61,4.31,'1111122,1111122,1111122' 
COMPS,ioos:station:USF.COMPS:ARP:1,2014-05-28T18:12:00Z,28.4330,-82.6670,10.0,2.18,38.48,4.8,'1111122,1111122,1111122' 
COMPS,ioos:station:USF.COMPS:ARP:1,2014-05-28T18:18:00Z,28.4330,-82.6670,10.0,1.38,337.72,3.42,'1111122,1111122,1111122' 
COMPS,ioos:station:USF.COMPS:ARP:1,2014-05-28T18:24:00Z,28.4330,-82.6670,10.0,1.41,22.43,3.52,'1111122,1111122,1111122' 
COMPS,ioos:station:USF.COMPS:ARP:1,2014-05-28T18:30:00Z,28.4330,-82.6670,10.0,0.94,69.53,2.45,'1111122,1111122,1111122' 
COMPS,ioos:station:USF.COMPS:ARP:1,2014-05-28T18:36:00Z,28.4330,-82.6670,10.0,0.88,98.93,2.05,'1111122,1111122,1111122' 
COMPS,ioos:station:USF.COMPS:ARP:1,2014-05-28T18:42:00Z,28.4330,-82.6670,10.0,0.85,124.17,2.15,'1111122,1111122,1111122' 
COMPS,ioos:station:USF.COMPS:ARP:1,2014-05-28T18:48:00Z,28.4330,-82.6670,10.0,0.86,114.0,1.37,'1111122,1111122,1111122' 
COMPS,ioos:station:USF.COMPS:ARP:1,2014-05-28T18:54:00Z,28.4330,-82.6670,10.0,0.87,95.61,1.27,'1111122,1111122,1111122' 
COMPS,ioos:station:USF.COMPS:ARP:1,2014-05-28T19:00:00Z,28.4330,-82.6670,10.0,0.56,71.07,1.27,'1111122,1111122,1111122' 
COMPS,ioos:station:USF.COMPS:ARP:1,2014-05-28T19:06:00Z,28.4330,-82.6670,10.0,0.14,258.46,0.58,'1111122,1111122,1111122' 
COMPS,ioos:station:USF.COMPS:ARP:1,2014-05-28T19:12:00Z,28.4330,-82.6670,10.0,0.49,36.26,1.17,'1111122,1111122,1111122' 
COMPS,ioos:station:USF.COMPS:ARP:1,2014-05-28T19:18:00Z,28.4330,-82.6670,10.0,0.91,67.32,1.27,'1111122,1111122,1111122' 
COMPS,ioos:station:USF.COMPS:ARP:1,2014-05-28T19:24:00Z,28.4330,-82.6670,10.0,0.23,54.69,0.68,'1111122,1111122,1111122' 
COMPS,ioos:station:USF.COMPS:ARP:1,2014-05-28T19:30:00Z,28.4330,-82.6670,10.0,0.64,77.65,1.17,'1111122,1111122,1111122' 
COMPS,ioos:station:USF.COMPS:ARP:1,2014-05-28T19:36:00Z,28.4330,-82.6670,10.0,0.69,74.29,1.46,'1111122,1111122,1111122' 
COMPS,ioos:station:USF.COMPS:ARP:1,2014-05-28T19:42:00Z,28.4330,-82.6670,10.0,1.95,304.44,2.64,'1111122,1111122,1111122' 
COMPS,ioos:station:USF.COMPS:ARP:1,2014-05-28T19:48:00Z,28.4330,-82.6670,10.0,2.71,308.01,3.13,'1111122,1111122,1111122' 
COMPS,ioos:station:USF.COMPS:ARP:1,2014-05-28T19:54:00Z,28.4330,-82.6670,10.0,2.95,308.72,3.91,'1111122,1111122,1111122' 
COMPS,ioos:station:USF.COMPS:ARP:1,2014-05-28T20:00:00Z,28.4330,-82.6670,10.0,2.53,319.25,3.82,'1111122,1111122,1111122' 
COMPS,ioos:station:USF.COMPS:ARP:1,2014-05-28T20:06:00Z,28.4330,-82.6670,10.0,2.54,305.4,3.82,'1111122,1111122,1111122' 
COMPS,ioos:station:USF.COMPS:ARP:1,2014-05-28T20:12:00Z,28.4330,-82.6670,10.0,2.94,302.56,3.62,'1111122,1111122,1111122' 
COMPS,ioos:station:USF.COMPS:ARP:1,2014-05-28T20:18:00Z,28.4330,-82.6670,10.0,2.84,307.67,3.52,'1111122,1111122,1111122' 
COMPS,ioos:station:USF.COMPS:ARP:1,2014-05-28T20:24:00Z,28.4330,-82.6670,10.0,3.12,303.21,3.72,'1111122,1111122,1111122' 
COMPS,ioos:station:USF.COMPS:ARP:1,2014-05-28T20:30:00Z,28.4330,-82.6670,10.0,3.28,301.95,3.72,'1111122,1111122,1111122' 
COMPS,ioos:station:USF.COMPS:ARP:1,2014-05-28T20:36:00Z,28.4330,-82.6670,10.0,3.28,302.92,3.91,'1111122,1111122,1111122' 
COMPS,ioos:station:USF.COMPS:ARP:1,2014-05-28T20:42:00Z,28.4330,-82.6670,10.0,2.29,307.55,3.72,'1111122,1111122,1111122' 
COMPS,ioos:station:USF.COMPS:ARP:1,2014-05-28T20:48:00Z,28.4330,-82.6670,10.0,2.54,307.23,3.42,'1111122,1111122,1111122' 
COMPS,ioos:station:USF.COMPS:ARP:1,2014-05-28T20:54:00Z,28.4330,-82.6670,10.0,2.66,306.13,3.33,'1111122,1111122,1111122' 
COMPS,ioos:station:USF.COMPS:ARP:1,2014-05-28T21:00:00Z,28.4330,-82.6670,10.0,2.94,302.61,3.82,'1111122,1111122,1111122' 
COMPS,ioos:station:USF.COMPS:ARP:1,2014-05-28T21:06:00Z,28.4330,-82.6670,10.0,3.12,300.37,3.91,'1111122,1111122,1111122' 
COMPS,ioos:station:USF.COMPS:ARP:1,2014-05-28T21:12:00Z,28.4330,-82.6670,10.0,3.22,303.66,3.82,'1111122,1111122,1111122' 
COMPS,ioos:station:USF.COMPS:ARP:1,2014-05-28T21:18:00Z,28.4330,-82.6670,10.0,2.82,303.45,3.33,'1111122,1111122,1111122' 
COMPS,ioos:station:USF.COMPS:ARP:1,2014-05-28T21:24:00Z,28.4330,-82.6670,10.0,2.54,305.11,3.23,'1111122,1111122,1111122' 
COMPS,ioos:station:USF.COMPS:ARP:1,2014-05-28T21:30:00Z,28.4330,-82.6670,10.0,2.63,304.84,3.72,'1111122,1111122,1111122' 
COMPS,ioos:station:USF.COMPS:ARP:1,2014-05-28T21:36:00Z,28.4330,-82.6670,10.0,3.02,306.36,3.72,'1111122,1111122,1111122' 
COMPS,ioos:station:USF.COMPS:ARP:1,2014-05-28T21:42:00Z,28.4330,-82.6670,10.0,2.33,308.74,3.23,'1111122,1111122,1111122' 
COMPS,ioos:station:USF.COMPS:ARP:1,2014-05-28T21:48:00Z,28.4330,-82.6670,10.0,2.1,313.06,3.52,'1111122,1111122,1111122' 
COMPS,ioos:station:USF.COMPS:ARP:1,2014-05-28T21:54:00Z,28.4330,-82.6670,10.0,1.52,312.85,2.74,'1111122,1111122,1111122' 
COMPS,ioos:station:USF.COMPS:ARP:1,2014-05-28T22:00:00Z,28.4330,-82.6670,10.0,2.07,312.23,3.03,'1111122,1111122,1111122' 
COMPS,ioos:station:USF.COMPS:ARP:1,2014-05-28T22:06:00Z,28.4330,-82.6670,10.0,1.63,310.35,3.13,'1111122,1111122,1111122' 
COMPS,ioos:station:USF.COMPS:ARP:1,2014-05-28T22:12:00Z,28.4330,-82.6670,10.0,1.51,316.77,2.54,'1111122,1111122,1111122' 
COMPS,ioos:station:USF.COMPS:ARP:1,2014-05-28T22:18:00Z,28.4330,-82.6670,10.0,0.73,325.9,2.84,'1111122,1111122,1111122' 
COMPS,ioos:station:USF.COMPS:ARP:1,2014-05-28T22:24:00Z,28.4330,-82.6670,10.0,1.77,321.72,3.33,'1111122,1111122,1111122' 
COMPS,ioos:station:USF.COMPS:ARP:1,2014-05-28T22:30:00Z,28.4330,-82.6670,10.0,1.47,315.62,2.64,'1111122,1111122,1111122' 
COMPS,ioos:station:USF.COMPS:ARP:1,2014-05-28T22:36:00Z,28.4330,-82.6670,10.0,1.03,336.54,2.45,'1111122,1111122,1111122' 
COMPS,ioos:station:USF.COMPS:ARP:1,2014-05-28T22:42:00Z,28.4330,-82.6670,10.0,1.33,316.12,2.25,'1111122,1111122,1111122' 
COMPS,ioos:station:USF.COMPS:ARP:1,2014-05-28T22:48:00Z,28.4330,-82.6670,10.0,1.49,317.71,2.25,'1111122,1111122,1111122' 
COMPS,ioos:station:USF.COMPS:ARP:1,2014-05-28T22:54:00Z,28.4330,-82.6670,10.0,1.92,313.04,2.93,'1111122,1111122,1111122' 
COMPS,ioos:station:USF.COMPS:ARP:1,2014-05-28T23:00:00Z,28.4330,-82.6670,10.0,2.17,311.63,2.93,'1111122,1111122,1111122' 
COMPS,ioos:station:USF.COMPS:ARP:1,2014-05-28T23:06:00Z,28.4330,-82.6670,10.0,1.44,317.26,2.35,'1111122,1111122,1111122' 
COMPS,ioos:station:USF.COMPS:ARP:1,2014-05-28T23:12:00Z,28.4330,-82.6670,10.0,1.59,319.37,3.03,'1111122,1111122,1111122' 
COMPS,ioos:station:USF.COMPS:ARP:1,2014-05-28T23:18:00Z,28.4330,-82.6670,10.0,1.34,316.25,2.25,'1111122,1111122,1111122' 
COMPS,ioos:station:USF.COMPS:ARP:1,2014-05-28T23:24:00Z,28.4330,-82.6670,10.0,1.1,327.91,2.35,'1111122,1111122,1111122' 
COMPS,ioos:station:USF.COMPS:ARP:1,2014-05-28T23:30:00Z,28.4330,-82.6670,10.0,1.14,325.6,2.05,'1111122,1111122,1111122' 
COMPS,ioos:station:USF.COMPS:ARP:1,2014-05-28T23:36:00Z,28.4330,-82.6670,10.0,1.0,333.49,1.95,'1111122,1111122,1111122' 
COMPS,ioos:station:USF.COMPS:ARP:1,2014-05-28T23:42:00Z,28.4330,-82.6670,10.0,0.6,343.01,1.27,'1111122,1111122,1111122' 
COMPS,ioos:station:USF.COMPS:ARP:1,2014-05-28T23:48:00Z,28.4330,-82.6670,10.0,0.73,318.71,1.76,'1111122,1111122,1111122' 
COMPS,ioos:station:USF.COMPS:ARP:1,2014-05-28T23:54:00Z,28.4330,-82.6670,10.0,0.73,323.34,1.56,'1111122,1111122,1111122' 
COMPS,ioos:station:USF.COMPS:ARP:1,2014-05-29T00:00:00Z,28.4330,-82.6670,10.0,0.38,326.38,1.37,'1111122,1111122,1111122' 
COMPS,ioos:station:USF.COMPS:ARP:1,2014-05-29T00:06:00Z,28.4330,-82.6670,10.0,0.82,312.65,1.66,'1111122,1111122,1111122' 
COMPS,ioos:station:USF.COMPS:ARP:1,2014-05-29T00:12:00Z,28.4330,-82.6670,10.0,1.02,320.89,2.05,'1111122,1111122,1111122' 
COMPS,ioos:station:USF.COMPS:ARP:1,2014-05-29T00:18:00Z,28.4330,-82.6670,10.0,0.56,321.04,0.88,'1111122,1111122,1111122' 
COMPS,ioos:station:USF.COMPS:ARP:1,2014-05-29T00:24:00Z,28.4330,-82.6670,10.0,0.86,298.21,1.46,'1111122,1111122,1111122' 
COMPS,ioos:station:USF.COMPS:ARP:1,2014-05-29T00:30:00Z,28.4330,-82.6670,10.0,0.8,290.24,1.86,'1111122,1111122,1111122' 
COMPS,ioos:station:USF.COMPS:ARP:1,2014-05-29T00:36:00Z,28.4330,-82.6670,10.0,0.06,114.06,0.39,'1111122,1111122,1111122' 
COMPS,ioos:station:USF.COMPS:ARP:1,2014-05-29T00:48:00Z,28.4330,-82.6670,10.0,0.15,99.34,0.49,'1111122,1111122,1111122' 
COMPS,ioos:station:USF.COMPS:ARP:1,2014-05-29T00:54:00Z,28.4330,-82.6670,10.0,0.18,127.8,0.58,'1111122,1111122,1111122' 
COMPS,ioos:station:USF.COMPS:ARP:1,2014-05-29T01:00:00Z,28.4330,-82.6670,10.0,0.02,190.83,0.29,'1111122,1111122,1111122' 
COMPS,ioos:station:USF.COMPS:ARP:1,2014-05-29T01:12:00Z,28.4330,-82.6670,10.0,0.08,160.52,0.58,'1111122,1111122,1111122' 
COMPS,ioos:station:USF.COMPS:ARP:1,2014-05-29T01:18:00Z,28.4330,-82.6670,10.0,0.79,204.46,1.27,'1111122,1111122,1111122' 
COMPS,ioos:station:USF.COMPS:ARP:1,2014-05-29T01:24:00Z,28.4330,-82.6670,10.0,0.61,203.41,1.07,'1111122,1111122,1111122' 
COMPS,ioos:station:USF.COMPS:ARP:1,2014-05-29T01:30:00Z,28.4330,-82.6670,10.0,0.6,215.43,1.07,'1111122,1111122,1111122' 
COMPS,ioos:station:USF.COMPS:ARP:1,2014-05-29T01:36:00Z,28.4330,-82.6670,10.0,0.79,232.6,1.17,'1111122,1111122,1111122' 
COMPS,ioos:station:USF.COMPS:ARP:1,2014-05-29T01:42:00Z,28.4330,-82.6670,10.0,0.65,186.61,1.27,'1111122,1111122,1111122' 
COMPS,ioos:station:USF.COMPS:ARP:1,2014-05-29T01:48:00Z,28.4330,-82.6670,10.0,1.41,168.96,2.45,'1111122,1111122,1111122' 
COMPS,ioos:station:USF.COMPS:ARP:1,2014-05-29T01:54:00Z,28.4330,-82.6670,10.0,1.82,161.39,3.52,'1111122,1111122,1111122' 
COMPS,ioos:station:USF.COMPS:ARP:1,2014-05-29T02:00:00Z,28.4330,-82.6670,10.0,1.36,157.9,2.74,'1111122,1111122,1111122' 
COMPS,ioos:station:USF.COMPS:ARP:1,2014-05-29T02:06:00Z,28.4330,-82.6670,10.0,1.35,112.41,2.25,'1111122,1111122,1111122' 
COMPS,ioos:station:USF.COMPS:ARP:1,2014-05-29T02:12:00Z,28.4330,-82.6670,10.0,1.5,106.79,2.54,'1111122,1111122,1111122' 
COMPS,ioos:station:USF.COMPS:ARP:1,2014-05-29T02:18:00Z,28.4330,-82.6670,10.0,1.4,113.24,2.54,'1111122,1111122,1111122' 
COMPS,ioos:station:USF.COMPS:ARP:1,2014-05-29T02:24:00Z,28.4330,-82.6670,10.0,0.66,141.15,1.66,'1111122,1111122,1111122' 
COMPS,ioos:station:USF.COMPS:ARP:1,2014-05-29T02:30:00Z,28.4330,-82.6670,10.0,1.11,112.01,1.56,'1111122,1111122,1111122' 
COMPS,ioos:station:USF.COMPS:ARP:1,2014-05-29T02:36:00Z,28.4330,-82.6670,10.0,1.76,103.78,2.74,'1111122,1111122,1111122' 
COMPS,ioos:station:USF.COMPS:ARP:1,2014-05-29T02:42:00Z,28.4330,-82.6670,10.0,1.71,87.7,2.64,'1111122,1111122,1111122' 
COMPS,ioos:station:USF.COMPS:ARP:1,2014-05-29T02:48:00Z,28.4330,-82.6670,10.0,1.5,107.54,2.35,'1111122,1111122,1111122' 
COMPS,ioos:station:USF.COMPS:ARP:1,2014-05-29T02:54:00Z,28.4330,-82.6670,10.0,1.23,106.61,1.66,'1111122,1111122,1111122' 
COMPS,ioos:station:USF.COMPS:ARP:1,2014-05-29T03:00:00Z,28.4330,-82.6670,10.0,1.13,116.45,2.05,'1111122,1111122,1111122' 
COMPS,ioos:station:USF.COMPS:ARP:1,2014-05-29T03:06:00Z,28.4330,-82.6670,10.0,0.82,121.81,1.17,'1111122,1111122,1111122' 
COMPS,ioos:station:USF.COMPS:ARP:1,2014-05-29T03:12:00Z,28.4330,-82.6670,10.0,0.47,160.85,0.88,'1111122,1111122,1111122' 
COMPS,ioos:station:USF.COMPS:ARP:1,2014-05-29T03:18:00Z,28.4330,-82.6670,10.0,0.59,169.3,2.05,'1111122,1111122,1111122' 
COMPS,ioos:station:USF.COMPS:ARP:1,2014-05-29T03:24:00Z,28.4330,-82.6670,10.0,1.09,100.54,2.25,'1111122,1111122,1111122' 
COMPS,ioos:station:USF.COMPS:ARP:1,2014-05-29T03:30:00Z,28.4330,-82.6670,10.0,1.19,100.28,1.76,'1111122,1111122,1111122' 
COMPS,ioos:station:USF.COMPS:ARP:1,2014-05-29T03:36:00Z,28.4330,-82.6670,10.0,1.18,93.35,2.05,'1111122,1111122,1111122' 
COMPS,ioos:station:USF.COMPS:ARP:1,2014-05-29T03:42:00Z,28.4330,-82.6670,10.0,0.49,154.15,0.97,'1111122,1111122,1111122' 
COMPS,ioos:station:USF.COMPS:ARP:1,2014-05-29T03:48:00Z,28.4330,-82.6670,10.0,0.7,175.02,1.46,'1111122,1111122,1111122' 
COMPS,ioos:station:USF.COMPS:ARP:1,2014-05-29T03:54:00Z,28.4330,-82.6670,10.0,0.43,145.15,1.07,'1111122,1111122,1111122' 
COMPS,ioos:station:USF.COMPS:ARP:1,2014-05-29T04:00:00Z,28.4330,-82.6670,10.0,0.54,112.39,1.07,'1111122,1111122,1111122' 
COMPS,ioos:station:USF.COMPS:ARP:1,2014-05-29T04:06:00Z,28.4330,-82.6670,10.0,0.28,145.1,0.88,'1111122,1111122,1111122' 
COMPS,ioos:station:USF.COMPS:ARP:1,2014-05-29T04:12:00Z,28.4330,-82.6670,10.0,0.28,160.84,1.07,'1111122,1111122,1111122' 
COMPS,ioos:station:USF.COMPS:ARP:1,2014-05-29T04:18:00Z,28.4330,-82.6670,10.0,0.61,137.12,1.56,'1111122,1111122,1111122' 
COMPS,ioos:station:USF.COMPS:ARP:1,2014-05-29T04:24:00Z,28.4330,-82.6670,10.0,0.47,155.35,1.07,'1111122,1111122,1111122' 
COMPS,ioos:station:USF.COMPS:ARP:1,2014-05-29T04:30:00Z,28.4330,-82.6670,10.0,0.31,120.5,0.97,'1111122,1111122,1111122' 
COMPS,ioos:station:USF.COMPS:ARP:1,2014-05-29T04:36:00Z,28.4330,-82.6670,10.0,0.44,93.64,0.78,'1111122,1111122,1111122' 
COMPS,ioos:station:USF.COMPS:ARP:1,2014-05-29T04:42:00Z,28.4330,-82.6670,10.0,1.0,64.15,1.66,'1111122,1111122,1111122' 
COMPS,ioos:station:USF.COMPS:ARP:1,2014-05-29T04:48:00Z,28.4330,-82.6670,10.0,1.01,39.52,1.66,'1111122,1111122,1111122' 
COMPS,ioos:station:USF.COMPS:ARP:1,2014-05-29T04:54:00Z,28.4330,-82.6670,10.0,1.07,82.85,1.66,'1111122,1111122,1111122' 
COMPS,ioos:station:USF.COMPS:ARP:1,2014-05-29T05:00:00Z,28.4330,-82.6670,10.0,1.06,79.31,1.37,'1111122,1111122,1111122' 
COMPS,ioos:station:USF.COMPS:ARP:1,2014-05-29T05:06:00Z,28.4330,-82.6670,10.0,1.04,86.04,1.46,'1111122,1111122,1111122' 
COMPS,ioos:station:USF.COMPS:ARP:1,2014-05-29T05:12:00Z,28.4330,-82.6670,10.0,1.29,85.07,1.66,'1111122,1111122,1111122' 
COMPS,ioos:station:USF.COMPS:ARP:1,2014-05-29T05:18:00Z,28.4330,-82.6670,10.0,0.84,92.57,1.07,'1111122,1111122,1111122' 
COMPS,ioos:station:USF.COMPS:ARP:1,2014-05-29T05:24:00Z,28.4330,-82.6670,10.0,0.58,101.53,1.07,'1111122,1111122,1111122' 
COMPS,ioos:station:USF.COMPS:ARP:1,2014-05-29T05:30:00Z,28.4330,-82.6670,10.0,0.68,92.67,0.97,'1111122,1111122,1111122' 
COMPS,ioos:station:USF.COMPS:ARP:1,2014-05-29T05:36:00Z,28.4330,-82.6670,10.0,0.99,84.2,1.56,'1111122,1111122,1111122' 
COMPS,ioos:station:USF.COMPS:ARP:1,2014-05-29T05:42:00Z,28.4330,-82.6670,10.0,0.92,82.38,1.27,'1111122,1111122,1111122' 
COMPS,ioos:station:USF.COMPS:ARP:1,2014-05-29T05:48:00Z,28.4330,-82.6670,10.0,0.82,90.68,1.17,'1111122,1111122,1111122' 
COMPS,ioos:station:USF.COMPS:ARP:1,2014-05-29T05:54:00Z,28.4330,-82.6670,10.0,0.82,97.17,1.07,'1111122,1111122,1111122' 
COMPS,ioos:station:USF.COMPS:ARP:1,2014-05-29T06:00:00Z,28.4330,-82.6670,10.0,0.82,113.97,1.27,'1111122,1111122,1111122' 
COMPS,ioos:station:USF.COMPS:ARP:1,2014-05-29T06:06:00Z,28.4330,-82.6670,10.0,0.86,119.74,1.76,'1111122,1111122,1111122' 
COMPS,ioos:station:USF.COMPS:ARP:1,2014-05-29T06:12:00Z,28.4330,-82.6670,10.0,1.27,113.39,2.35,'1111122,1111122,1111122' 
COMPS,ioos:station:USF.COMPS:ARP:1,2014-05-29T06:18:00Z,28.4330,-82.6670,10.0,1.25,111.17,1.86,'1111122,1111122,1111122' 
COMPS,ioos:station:USF.COMPS:ARP:1,2014-05-29T06:24:00Z,28.4330,-82.6670,10.0,1.27,107.51,2.05,'1111122,1111122,1111122' 
COMPS,ioos:station:USF.COMPS:ARP:1,2014-05-29T06:30:00Z,28.4330,-82.6670,10.0,1.33,106.31,1.95,'1111122,1111122,1111122' 
COMPS,ioos:station:USF.COMPS:ARP:1,2014-05-29T06:36:00Z,28.4330,-82.6670,10.0,1.23,113.84,2.25,'1111122,1111122,1111122' 
COMPS,ioos:station:USF.COMPS:ARP:1,2014-05-29T06:42:00Z,28.4330,-82.6670,10.0,1.42,113.35,2.54,'1111122,1111122,1111122' 
COMPS,ioos:station:USF.COMPS:ARP:1,2014-05-29T06:48:00Z,28.4330,-82.6670,10.0,1.49,116.3,2.45,'1111122,1111122,1111122' 
COMPS,ioos:station:USF.COMPS:ARP:1,2014-05-29T06:54:00Z,28.4330,-82.6670,10.0,1.46,115.01,2.35,'1111122,1111122,1111122' 
COMPS,ioos:station:USF.COMPS:ARP:1,2014-05-29T07:00:00Z,28.4330,-82.6670,10.0,1.52,118.17,2.74,'1111122,1111122,1111122' 
COMPS,ioos:station:USF.COMPS:ARP:1,2014-05-29T07:06:00Z,28.4330,-82.6670,10.0,1.0,118.33,1.86,'1111122,1111122,1111122' 
COMPS,ioos:station:USF.COMPS:ARP:1,2014-05-29T07:12:00Z,28.4330,-82.6670,10.0,1.44,109.6,2.15,'1111122,1111122,1111122' 
COMPS,ioos:station:USF.COMPS:ARP:1,2014-05-29T07:18:00Z,28.4330,-82.6670,10.0,1.05,121.8,2.15,'1111122,1111122,1111122' 
COMPS,ioos:station:USF.COMPS:ARP:1,2014-05-29T07:24:00Z,28.4330,-82.6670,10.0,0.99,121.04,1.86,'1111122,1111122,1111122' 
COMPS,ioos:station:USF.COMPS:ARP:1,2014-05-29T07:30:00Z,28.4330,-82.6670,10.0,1.52,110.94,2.54,'1111122,1111122,1111122' 
COMPS,ioos:station:USF.COMPS:ARP:1,2014-05-29T07:36:00Z,28.4330,-82.6670,10.0,1.53,106.54,2.25,'1111122,1111122,1111122' 
COMPS,ioos:station:USF.COMPS:ARP:1,2014-05-29T07:42:00Z,28.4330,-82.6670,10.0,1.56,108.96,2.54,'1111122,1111122,1111122' 
COMPS,ioos:station:USF.COMPS:ARP:1,2014-05-29T07:48:00Z,28.4330,-82.6670,10.0,1.2,110.82,1.76,'1111122,1111122,1111122' 
COMPS,ioos:station:USF.COMPS:ARP:1,2014-05-29T07:54:00Z,28.4330,-82.6670,10.0,1.08,113.5,1.66,'1111122,1111122,1111122' 
COMPS,ioos:station:USF.COMPS:ARP:1,2014-05-29T08:00:00Z,28.4330,-82.6670,10.0,1.64,111.66,2.45,'1111122,1111122,1111122' 
COMPS,ioos:station:USF.COMPS:ARP:1,2014-05-29T08:06:00Z,28.4330,-82.6670,10.0,1.56,110.44,2.15,'1111122,1111122,1111122' 
COMPS,ioos:station:USF.COMPS:ARP:1,2014-05-29T08:12:00Z,28.4330,-82.6670,10.0,1.26,114.35,1.95,'1111122,1111122,1111122' 
COMPS,ioos:station:USF.COMPS:ARP:1,2014-05-29T08:18:00Z,28.4330,-82.6670,10.0,1.19,107.13,2.05,'1111122,1111122,1111122' 
COMPS,ioos:station:USF.COMPS:ARP:1,2014-05-29T08:24:00Z,28.4330,-82.6670,10.0,0.74,116.31,1.56,'1111122,1111122,1111122' 
COMPS,ioos:station:USF.COMPS:ARP:1,2014-05-29T08:30:00Z,28.4330,-82.6670,10.0,0.36,124.58,1.07,'1111122,1111122,1111122' 
COMPS,ioos:station:USF.COMPS:ARP:1,2014-05-29T08:36:00Z,28.4330,-82.6670,10.0,0.79,114.7,1.37,'1111122,1111122,1111122' 
COMPS,ioos:station:USF.COMPS:ARP:1,2014-05-29T08:42:00Z,28.4330,-82.6670,10.0,1.22,106.81,1.66,'1111122,1111122,1111122' 
COMPS,ioos:station:USF.COMPS:ARP:1,2014-05-29T08:48:00Z,28.4330,-82.6670,10.0,1.08,111.67,1.66,'1111122,1111122,1111122' 
COMPS,ioos:station:USF.COMPS:ARP:1,2014-05-29T08:54:00Z,28.4330,-82.6670,10.0,0.82,121.62,1.56,'1111122,1111122,1111122' 
COMPS,ioos:station:USF.COMPS:ARP:1,2014-05-29T09:00:00Z,28.4330,-82.6670,10.0,0.98,116.35,2.05,'1111122,1111122,1111122' 
COMPS,ioos:station:USF.COMPS:ARP:1,2014-05-29T09:06:00Z,28.4330,-82.6670,10.0,1.05,115.39,1.95,'1111122,1111122,1111122' 
COMPS,ioos:station:USF.COMPS:ARP:1,2014-05-29T09:12:00Z,28.4330,-82.6670,10.0,1.5,111.68,2.25,'1111122,1111122,1111122' 
COMPS,ioos:station:USF.COMPS:ARP:1,2014-05-29T09:18:00Z,28.4330,-82.6670,10.0,1.45,113.79,2.05,'1111122,1111122,1111122' 
COMPS,ioos:station:USF.COMPS:ARP:1,2014-05-29T09:24:00Z,28.4330,-82.6670,10.0,0.96,123.2,1.46,'1111122,1111122,1111122' 
COMPS,ioos:station:USF.COMPS:ARP:1,2014-05-29T09:30:00Z,28.4330,-82.6670,10.0,0.87,121.92,1.86,'1111122,1111122,1111122' 
COMPS,ioos:station:USF.COMPS:ARP:1,2014-05-29T09:36:00Z,28.4330,-82.6670,10.0,1.43,114.53,2.05,'1111122,1111122,1111122' 
COMPS,ioos:station:USF.COMPS:ARP:1,2014-05-29T09:42:00Z,28.4330,-82.6670,10.0,0.76,121.83,1.76,'1111122,1111122,1111122' 
COMPS,ioos:station:USF.COMPS:ARP:1,2014-05-29T09:48:00Z,28.4330,-82.6670,10.0,1.21,116.18,2.35,'1111122,1111122,1111122' 
COMPS,ioos:station:USF.COMPS:ARP:1,2014-05-29T09:54:00Z,28.4330,-82.6670,10.0,1.38,113.22,2.45,'1111122,1111122,1111122' 
COMPS,ioos:station:USF.COMPS:ARP:1,2014-05-29T10:00:00Z,28.4330,-82.6670,10.0,1.02,123.44,1.76,'1111122,1111122,1111122' 
COMPS,ioos:station:USF.COMPS:ARP:1,2014-05-29T10:06:00Z,28.4330,-82.6670,10.0,1.04,119.36,1.76,'1111122,1111122,1111122' 
COMPS,ioos:station:USF.COMPS:ARP:1,2014-05-29T10:12:00Z,28.4330,-82.6670,10.0,1.04,120.32,1.66,'1111122,1111122,1111122' 
COMPS,ioos:station:USF.COMPS:ARP:1,2014-05-29T10:18:00Z,28.4330,-82.6670,10.0,1.6,113.05,2.93,'1111122,1111122,1111122' 
COMPS,ioos:station:USF.COMPS:ARP:1,2014-05-29T10:24:00Z,28.4330,-82.6670,10.0,1.55,112.91,2.54,'1111122,1111122,1111122' 
COMPS,ioos:station:USF.COMPS:ARP:1,2014-05-29T10:30:00Z,28.4330,-82.6670,10.0,1.93,110.31,3.33,'1111122,1111122,1111122' 
COMPS,ioos:station:USF.COMPS:ARP:1,2014-05-29T10:36:00Z,28.4330,-82.6670,10.0,2.27,109.24,3.23,'1111122,1111122,1111122' 
COMPS,ioos:station:USF.COMPS:ARP:1,2014-05-29T10:42:00Z,28.4330,-82.6670,10.0,2.15,110.26,3.33,'1111122,1111122,1111122' 